IU2CMQ-13 Weather Reports


time (UTC)temp
F
wind
direction
speed
knots
gust
knots
rain 1hr
in
rain 24hr
in
rain mn
in
humidity
%
barometer
mb
20260507123819 62 134 3.5 9.6 0.00 2.76 0.01 70 1013.4
20260507123317 63 181 6.1 9.6 0.00 2.76 0.01 70 1013.5
20260507122835 63 146 4.3 8.7 0.00 2.76 0.01 72 1013.4
20260507122331 63 136 6.1 8.7 0.00 2.76 0.01 72 1013.6
20260507121828 63 152 4.3 9.6 0.00 2.76 0.01 71 1013.5
20260507121325 63 137 5.2 7.8 0.00 2.76 0.01 70 1013.6
20260507120824 62 146 2.6 7.8 0.00 2.76 0.01 73 1013.7
20260507120342 62 178 5.2 8.7 0.00 2.95 0.01 71 1013.7
20260507115819 62 159 4.3 8.7 0.00 2.95 0.01 73 1013.7
20260507115315 62 150 6.1 9.6 0.00 2.95 0.01 70 1013.7
20260507114833 62 144 4.3 9.6 0.00 2.95 0.01 72 1013.8
20260507114331 62 161 5.2 8.7 0.00 2.95 0.01 72 1013.7
20260507113829 62 153 6.1 8.7 0.00 2.95 0.01 69 1013.7
20260507113328 62 128 4.3 9.6 0.00 2.95 0.01 72 1013.7
20260507112846 62 165 5.2 8.7 0.00 2.95 0.01 70 1013.8
20260507112321 62 159 6.1 9.6 0.00 2.95 0.01 70 1013.8
20260507111819 63 152 5.2 9.6 0.00 2.95 0.01 70 1013.8
20260507111317 62 154 5.2 8.7 0.00 2.95 0.01 71 1013.9
20260507110815 62 129 4.3 8.7 0.00 2.95 0.01 71 1013.9
20260507110328 61 144 4.3 8.7 0.00 2.95 0.01 71 1014.1
20260507105825 61 149 5.2 7.8 0.00 4.06 0.01 71 1014.1
20260507105325 61 163 5.2 7.8 0.00 4.06 0.01 73 1014.2
20260507104823 60 178 3.5 7.0 0.00 4.06 0.01 72 1014.1
20260507104321 61 175 4.3 9.6 0.00 4.06 0.01 72 1014.2
20260507103818 61 138 5.2 8.7 0.00 4.06 0.01 71 1014.3
20260507103315 61 140 6.1 8.7 0.00 4.06 0.01 71 1014.3
20260507102831 60 153 4.3 7.0 0.00 4.06 0.01 72 1014.3
20260507102329 60 158 4.3 5.2 0.00 4.06 0.01 71 1014.2
20260507101826 60 150 3.5 8.7 0.00 4.06 0.01 71 1014.4
20260507101345 60 150 5.2 8.7 0.00 4.06 0.01 70 1014.3
20260507100821 60 147 3.5 7.0 0.00 4.06 0.01 69 1014.3
20260507100319 60 158 5.2 7.0 0.00 4.29 0.01 70 1014.3
20260507095836 60 152 3.5 6.1 0.00 4.29 0.01 70 1014.3
20260507095331 60 166 2.6 4.3 0.00 4.29 0.01 70 1014.3
20260507094849 59 140 1.7 2.6 0.00 4.29 0.01 72 1014.4
20260507094326 59 182 1.7 3.5 0.00 4.29 0.01 71 1014.3
20260507093843 59 184 0.9 6.1 0.00 4.29 0.01 72 1014.4
20260507093321 59 139 1.7 6.1 0.00 4.29 0.01 72 1014.4
20260507092819 59 172 0.9 5.2 0.00 4.29 0.01 72 1014.4
20260507092314 59 175 3.5 7.0 0.00 4.29 0.01 70 1014.4
20260507091815 59 156 3.5 8.7 0.00 4.29 0.01 72 1014.3
20260507091330 59 140 5.2 7.8 0.00 4.29 0.01 72 1014.3
20260507090829 59 115 5.2 7.0 0.00 4.29 0.01 71 1014.3
20260507090326 59 150 2.6 4.3 0.00 4.29 0.01 73 1014.4
20260507085824 58 184 0.9 2.6 0.00 4.37 0.01 76 1014.4
20260507085322 57 185 1.7 4.3 0.00 4.37 0.01 77 1014.4
20260507084819 57 185 2.6 4.3 0.00 4.37 0.01 76 1014.4
20260507084319 58 181 3.5 4.3 0.00 4.37 0.01 75 1014.4
20260507083837 57 129 1.7 6.1 0.00 4.37 0.01 76 1014.4
20260507083334 58 116 3.5 6.1 0.00 4.37 0.01 76 1014.4
20260507082832 58 114 4.3 7.8 0.00 4.37 0.01 76 1014.3
20260507082330 58 137 1.7 6.1 0.00 4.37 0.01 77 1014.3
20260507081828 58 195 0.9 4.3 0.00 4.37 0.01 77 1014.2
20260507081324 58 210 2.6 6.1 0.00 4.37 0.01 78 1014.2
20260507080821 57 135 3.5 6.1 0.00 4.37 0.01 80 1014.3
20260507080339 57 140 3.5 6.1 0.00 4.37 0.01 80 1014.2
20260507075853 57 69 2.6 4.3 0.00 4.49 0.01 81 1014.0
20260507075350 56 69 1.7 3.5 0.00 4.49 0.01 81 1014.2
20260507074827 56 68 2.6 3.5 0.00 4.49 0.01 82 1014.2
20260507074324 56 68 0.0 4.3 0.00 4.49 0.01 82 1014.2
20260507073841 56 68 2.6 5.2 0.00 4.49 0.01 83 1014.1
20260507073341 55 68 3.5 5.2 0.00 4.49 0.01 82 1014.1
20260507072816 55 68 2.6 5.2 0.00 4.49 0.01 82 1014.0
20260507072315 56 70 2.6 4.3 0.00 4.49 0.01 82 1014.0
20260507071833 55 59 1.7 3.5 0.00 4.49 0.01 83 1014.1
20260507071330 55 59 0.9 5.2 0.00 4.49 0.01 83 1014.1
20260507070829 54 59 3.5 5.2 0.00 4.49 0.01 84 1013.9
20260507070328 54 62 3.5 5.2 0.00 4.49 0.01 84 1013.9
20260507065823 55 67 1.7 6.1 0.00 4.61 0.01 84 1013.9
20260507065319 55 110 2.6 6.1 0.00 4.61 0.01 83 1014.0
20260507064817 55 221 0.9 6.1 0.00 4.61 0.01 82 1013.9
20260507064315 55 157 1.7 7.0 0.00 4.61 0.01 83 1013.7
20260507063814 55 147 4.3 7.0 0.00 4.61 0.01 83 1013.8
20260507063331 55 119 4.3 7.0 0.00 4.61 0.01 83 1013.7
20260507062829 55 131 4.3 7.0 0.00 4.61 0.01 83 1013.7
20260507062327 55 110 2.6 6.1 0.00 4.61 0.01 83 1013.7
20260507061846 54 113 2.6 3.5 0.00 4.61 0.01 84 1013.8
20260507061322 54 123 1.7 2.6 0.00 4.61 0.01 84 1013.7
20260507060820 54 232 0.9 1.7 0.00 4.61 0.01 83 1013.8
20260507060315 54 232 0.0 3.5 0.00 4.84 0.01 83 1013.7
20260507055832 53 232 1.7 4.3 0.00 4.84 0.01 83 1013.7
20260507055331 53 232 3.5 7.8 0.00 4.84 0.01 83 1013.8
20260507054827 53 19 2.6 9.6 0.00 4.84 0.01 82 1013.7
20260507054447 53 24 7.0 11.3 0.00 4.84 0.01 82 1013.6
20260507053829 53 360 7.0 11.3 0.00 4.84 0.01 83 1013.5
20260507053349 53 298 7.0 10.4 0.00 4.84 0.01 82 1013.5
20260507052825 53 355 7.8 11.3 0.00 4.84 0.01 81 1013.4
20260507052322 53 320 7.0 13.0 0.00 4.84 0.01 81 1013.5
20260507051839 53 314 8.7 13.0 0.00 4.84 0.01 82 1013.4
20260507051359 53 316 4.3 8.7 0.00 4.84 0.01 82 1013.4
20260507050817 53 344 5.2 9.6 0.00 4.84 0.01 82 1013.4
20260507050316 53 46 7.0 9.6 0.00 5.16 0.01 82 1013.3
20260507045842 53 18 4.3 10.4 0.00 5.16 0.01 82 1013.2
20260507045336 54 355 7.8 10.4 0.00 5.16 0.01 81 1013.2
20260507044853 54 19 4.3 12.2 0.00 5.16 0.01 81 1013.2
20260507044330 54 297 7.0 13.0 0.00 5.16 0.01 80 1013.1
20260507043828 53 292 7.0 14.8 0.00 5.16 0.01 80 1013.0
20260507043348 53 280 6.1 12.2 0.00 5.16 0.01 83 1013.0
20260507042828 53 286 7.0 10.4 0.00 5.16 0.01 84 1013.0
20260507042327 52 19 4.3 7.8 0.00 5.16 0.01 86 1013.0
20260507041842 52 308 3.5 9.6 0.00 5.16 0.01 86 1013.0
20260507041338 52 302 3.5 10.4 0.00 5.16 0.01 85 1012.9
20260507040857 52 16 5.2 10.4 0.00 5.16 0.01 85 1013.0
20260507040337 52 9 3.5 8.7 0.00 5.16 0.01 86 1012.8
20260507035814 52 44 2.6 5.2 0.00 5.16 0.01 86 1012.8
20260507035333 52 43 0.9 2.6 0.00 5.16 0.01 87 1012.9
20260507034831 52 43 1.7 3.5 0.00 5.16 0.01 87 1012.8
20260507034327 52 43 2.6 3.5 0.00 5.16 0.01 87 1012.8
20260507033827 52 17 0.0 0.0 0.00 5.16 0.01 86 1012.8
20260507033327 53 17 0.0 0.0 0.00 5.16 0.01 86 1012.9
20260507032826 53 17 0.0 7.0 0.00 5.16 0.01 85 1012.9
20260507032323 52 17 1.7 7.0 0.00 5.16 0.01 85 1012.8
20260507031820 53 20 2.6 5.2 0.00 5.16 0.01 85 1012.9
20260507031338 53 360 2.6 7.0 0.00 5.16 0.01 85 1012.8
20260507030839 52 304 3.5 7.0 0.00 5.16 0.01 86 1012.8
20260507030338 52 27 2.6 5.2 0.00 5.20 0.01 87 1012.8
20260507025817 51 32 3.5 5.2 0.00 5.20 0.01 88 1012.7
20260507025315 52 306 1.7 2.6 0.00 5.20 0.01 88 1012.9
20260507024832 52 306 1.7 2.6 0.00 5.20 0.01 88 1012.8
20260507024330 52 306 0.0 1.7 0.00 5.20 0.01 88 1012.7
20260507023829 52 306 0.0 1.7 0.00 5.20 0.01 87 1012.7
20260507023325 52 306 0.0 1.7 0.00 5.20 0.01 86 1012.5
20260507022824 52 306 0.0 3.5 0.00 5.20 0.01 86 1012.6
20260507022344 52 306 1.7 3.5 0.00 5.20 0.01 85 1012.6
20260507021821 52 329 1.7 4.3 0.00 5.20 0.01 84 1012.5
20260507021320 53 263 2.6 7.8 0.00 5.20 0.01 83 1012.5
20260507020818 53 329 2.6 12.2 0.00 5.20 0.01 83 1012.6
20260507020316 53 5 7.0 12.2 0.00 5.24 0.01 82 1012.4
20260507015814 53 294 5.2 14.8 0.00 5.24 0.01 83 1012.4
20260507015333 53 271 5.2 11.3 0.00 5.24 0.01 83 1012.4
20260507014824 52 327 4.3 7.8 0.00 5.24 0.01 84 1012.3
20260507014321 52 336 2.6 6.1 0.00 5.24 0.01 86 1012.4
20260507013821 52 313 3.5 5.2 0.00 5.24 0.01 87 1012.5
20260507013320 52 286 4.3 6.1 0.00 5.24 0.01 87 1012.5
20260507012817 52 260 5.2 6.1 0.00 5.24 0.01 88 1012.6
20260507012315 51 265 1.7 4.3 0.00 5.24 0.01 88 1012.5
20260507011833 51 252 2.6 5.2 0.00 5.24 0.01 88 1012.4
20260507011330 51 63 0.9 2.6 0.04 5.24 0.01 87 1012.5
20260507010848 52 277 0.0 6.1 0.04 5.24 0.01 87 1012.4
20260507010325 52 277 4.3 6.1 0.04 5.24 0.01 86 1012.5
20260507005823 52 292 3.5 4.3 0.04 5.28 0.01 85 1012.5
20260507005342 53 14 2.6 5.2 0.04 5.28 0.01 83 1012.6
20260507004839 53 300 2.6 8.7 0.04 5.28 0.01 83 1012.6
20260507004357 52 327 4.3 8.7 0.04 5.28 0.01 83 1012.5
20260507003855 52 337 3.5 11.3 0.04 5.28 0.01 84 1012.6
20260507003352 52 340 6.1 11.3 0.04 5.28 0.01 84 1012.6
20260507002829 52 328 5.2 9.6 0.04 5.28 0.01 85 1012.6
20260507002325 52 300 3.5 7.8 0.04 5.28 0.01 86 1012.8
20260507001824 52 313 0.9 3.5 0.04 5.28 0.01 87 1012.8
20260507001341 52 312 1.7 7.8 0.00 5.24 0.00 87 1012.8
20260507000819 52 26 1.7 5.2 0.00 5.24 0.00 87 1012.7
20260507000336 52 321 0.9 7.0 0.00 5.24 0.00 86 1012.8
20260506235837 52 303 2.6 7.0 0.00 5.24 0.00 86 1012.7
20260506235334 52 346 1.7 7.0 0.00 5.24 0.00 86 1012.7
20260506234832 52 265 5.2 10.4 0.00 5.24 0.00 86 1012.6
20260506234330 53 339 6.1 10.4 0.00 5.24 0.00 84 1012.6
20260506233827 53 285 6.1 12.2 0.00 5.24 0.00 83 1012.5
20260506233324 53 22 7.0 11.3 0.00 5.24 0.00 82 1012.6
20260506232822 53 335 6.1 11.3 0.00 5.24 0.00 82 1012.6
20260506232320 53 291 7.8 11.3 0.00 5.24 0.00 82 1012.6
20260506231820 53 245 6.1 13.9 0.00 5.24 0.00 82 1012.7
20260506231335 52 256 8.7 13.9 0.00 5.24 0.00 83 1012.7
20260506230832 52 288 5.2 13.0 0.00 5.24 0.00 84 1012.5
20260506230350 52 245 5.2 7.0 0.00 5.24 0.00 86 1012.5
20260506225827 52 209 3.5 4.3 0.00 5.43 0.00 85 1012.5
20260506225324 52 341 2.6 4.3 0.00 5.43 0.00 85 1012.5
20260506224823 52 267 0.9 7.0 0.00 5.43 0.00 85 1012.6
20260506224318 52 246 3.5 9.6 0.00 5.43 0.00 84 1012.6
20260506223837 53 269 7.0 11.3 0.00 5.43 0.00 83 1012.5
20260506223315 53 319 7.0 15.6 0.00 5.43 0.00 82 1012.4
20260506222833 53 305 6.1 15.6 0.00 5.43 0.00 81 1012.5
20260506222330 53 326 8.7 15.6 0.00 5.43 0.00 80 1012.6
20260506221827 53 312 7.8 12.2 0.00 5.43 0.00 81 1012.7
20260506221322 52 5 5.2 10.4 0.00 5.43 0.00 83 1012.8
20260506220840 52 32 7.0 9.6 0.00 5.43 0.00 84 1012.7
20260506220337 52 313 4.3 12.2 0.00 5.43 0.00 83 1012.7
20260506215826 53 29 7.0 12.2 0.00 5.55 1.38 83 1012.7
20260506215343 53 13 7.8 10.4 0.00 5.55 1.38 82 1012.8
20260506214820 53 330 3.5 9.6 0.00 5.55 1.38 81 1012.8
20260506214318 53 327 6.1 13.0 0.00 5.55 1.38 80 1012.7
20260506213844 54 349 3.5 13.0 0.00 5.55 1.38 80 1012.6
20260506213321 54 303 5.2 12.2 0.00 5.55 1.38 80 1012.7
20260506212820 54 334 6.1 11.3 0.00 5.55 1.38 79 1012.6
20260506212319 54 19 6.1 9.6 0.00 5.55 1.38 79 1012.7
20260506211819 54 19 4.3 10.4 0.00 5.55 1.38 79 1012.7
20260506211336 54 5 5.2 10.4 0.00 5.55 1.38 78 1012.7
20260506210853 55 318 4.3 9.6 0.00 5.55 1.38 78 1012.6
20260506210351 54 350 4.3 11.3 0.00 5.55 1.38 79 1012.5
20260506205828 54 355 5.2 11.3 0.00 5.55 1.38 82 1012.7
20260506205325 53 351 1.7 9.6 0.00 5.55 1.38 83 1012.4
20260506204823 54 9 4.3 11.3 0.00 5.55 1.38 83 1012.6
20260506204347 54 269 8.7 12.2 0.00 5.55 1.38 83 1012.7
20260506203824 54 306 5.2 13.0 0.00 5.55 1.38 83 1012.6
20260506203321 53 281 7.8 13.0 0.00 5.55 1.38 84 1012.5
20260506202835 53 23 7.0 10.4 0.00 5.55 1.38 83 1012.5
20260506202350 53 355 4.3 9.6 0.00 5.55 1.38 81 1012.6
20260506201826 54 355 4.3 11.3 0.00 5.55 1.38 80 1012.5
20260506201324 54 304 7.0 10.4 0.00 5.55 1.38 79 1012.4
20260506200823 54 302 7.0 13.0 0.00 5.55 1.38 80 1012.4
20260506200320 54 286 5.2 16.5 0.00 5.55 1.38 83 1012.4
20260506195822 54 295 6.1 20.9 0.00 5.55 1.38 88 1012.3
20260506195319 54 265 13.0 20.9 0.00 5.55 1.38 89 1012.3
20260506194837 54 285 12.2 20.9 0.00 5.55 1.38 88 1012.0
20260506194340 53 290 11.3 20.9 0.00 5.55 1.38 87 1011.9
20260506193834 54 305 7.8 13.0 0.00 5.55 1.38 85 1011.6
20260506193334 54 262 6.1 12.2 0.00 5.55 1.38 84 1011.7
20260506192831 54 311 7.8 16.5 0.00 5.55 1.38 83 1011.7
20260506192325 54 306 9.6 16.5 0.00 5.55 1.38 82 1011.7
20260506191820 54 306 6.1 13.0 0.00 5.55 1.38 80 1011.6
20260506191317 54 309 4.3 13.0 0.00 5.55 1.38 81 1011.5
20260506190839 54 281 5.2 12.2 0.00 5.55 1.38 81 1011.6
20260506190335 54 305 7.8 12.2 0.00 5.55 1.38 80 1011.5
20260506185835 54 317 7.8 12.2 0.20 5.55 1.38 80 1011.4
20260506185332 54 313 7.8 14.8 0.28 5.55 1.38 80 1011.2
20260506184851 54 323 9.6 14.8 0.31 5.55 1.38 79 1011.2
20260506184326 54 355 4.3 13.9 0.39 5.55 1.38 80 1011.3
20260506183831 54 13 8.7 14.8 0.59 5.55 1.38 81 1011.1
20260506183332 54 355 8.7 16.5 1.22 5.55 1.38 81 1010.9
20260506182829 54 323 11.3 20.9 1.77 5.55 1.38 81 1011.0
20260506182329 54 336 13.9 20.9 2.60 5.55 1.38 82 1011.1
20260506181826 53 346 12.2 20.0 2.64 5.55 1.38 84 1011.0
20260506181341 53 316 7.8 17.4 2.72 5.55 1.38 85 1011.0
20260506180819 53 305 11.3 17.4 2.72 5.55 1.38 87 1010.8
20260506180317 52 325 8.7 15.6 2.68 5.51 1.37 90 1010.6
20260506175834 51 342 6.1 15.6 2.44 5.28 1.31 93 1010.8
20260506175331 51 315 2.6 10.4 2.44 5.28 1.31 92 1010.9
20260506174828 51 340 7.0 11.3 2.40 5.24 1.30 92 1010.4
20260506174324 50 349 7.8 12.2 2.28 5.12 1.27 92 1010.3
20260506174038 50 344 9.6 13.0 2.17 5.00 1.24 92 1010.1
20260506172318 53 269 11.3 19.1 0.08 2.91 0.71 86 1009.3
20260506171818 55 290 15.6 19.1 0.08 2.91 0.71 83 1009.1
20260506171315 58 294 10.4 15.6 0.00 2.83 0.69 86 1009.1
20260506170832 59 294 5.2 17.4 0.00 2.83 0.69 84 1008.6
20260506170330 59 174 4.3 16.5 0.00 2.83 0.69 82 1008.1
20260506165828 59 337 10.4 16.5 0.00 2.87 0.69 81 1007.9
20260506165347 58 26 7.8 14.8 0.00 2.87 0.69 83 1008.0
20260506164841 58 24 3.5 9.6 0.00 2.87 0.69 84 1008.1
20260506164340 58 38 6.1 9.6 0.00 2.87 0.69 84 1008.2
20260506163816 59 219 3.5 11.3 0.00 2.87 0.69 81 1008.3
20260506163334 59 310 7.8 11.3 0.00 2.87 0.69 81 1008.0
20260506162834 59 36 7.0 9.6 0.00 2.87 0.69 80 1008.0
20260506162352 59 30 6.1 8.7 0.00 2.87 0.69 78 1008.1
20260506161850 59 27 6.1 8.7 0.00 2.87 0.69 79 1008.3
20260506161328 59 50 2.6 6.1 0.00 2.87 0.69 81 1008.4
20260506160847 59 238 0.0 1.7 0.00 2.87 0.69 79 1008.5
20260506160325 59 238 0.9 3.5 0.00 2.99 0.69 80 1008.6
20260506155822 60 238 2.6 7.0 0.00 2.99 0.69 78 1008.6
20260506155322 60 351 5.2 8.7 0.00 2.99 0.69 76 1008.4
20260506154820 60 60 5.2 8.7 0.00 2.99 0.69 76 1008.3
20260506154318 60 24 2.6 8.7 0.00 2.99 0.69 76 1008.3
20260506153816 60 26 4.3 8.7 0.00 2.99 0.69 77 1008.4
20260506153333 59 47 1.7 7.0 0.00 2.99 0.69 81 1008.5
20260506152832 59 287 2.6 8.7 0.00 2.99 0.69 79 1008.6
20260506152328 59 49 4.3 9.6 0.00 2.99 0.69 78 1008.5
20260506151825 59 41 6.1 9.6 0.00 2.99 0.69 79 1008.6
20260506151349 59 17 7.0 11.3 0.00 2.99 0.69 79 1008.6
20260506150825 59 21 6.1 11.3 0.00 2.99 0.69 79 1008.7
20260506150323 59 44 5.2 8.7 0.00 3.03 0.69 80 1008.9
20260506145820 59 25 5.2 9.6 0.00 3.03 0.69 81 1008.8
20260506145318 59 103 5.2 9.6 0.00 3.03 0.69 80 1008.8
20260506144834 59 53 4.3 9.6 0.00 3.03 0.69 80 1009.0
20260506144332 58 351 5.2 8.7 0.00 3.03 0.69 81 1009.1
20260506143831 58 261 2.6 10.4 0.00 3.03 0.69 83 1009.2
20260506143328 58 44 6.1 11.3 0.00 3.03 0.69 79 1009.2
20260506142824 58 22 7.0 11.3 0.00 3.03 0.69 81 1009.4
20260506142323 58 53 6.1 9.6 0.00 3.03 0.69 82 1009.5
20260506141849 59 53 3.5 8.7 0.00 3.03 0.69 80 1009.6
20260506141322 58 22 4.3 8.7 0.00 3.03 0.69 80 1009.7
20260506140820 58 45 5.2 10.4 0.00 3.03 0.69 82 1009.7
20260506140337 57 28 7.0 10.4 0.00 3.03 0.69 81 1009.8
20260506135856 58 351 6.1 10.4 0.00 3.07 0.69 82 1009.7
20260506135332 58 69 5.2 10.4 0.00 3.07 0.69 83 1009.9
20260506134829 58 63 4.3 11.3 0.00 3.07 0.69 81 1009.9
20260506134328 58 23 5.2 11.3 0.00 3.07 0.69 80 1010.0
20260506133826 57 33 3.5 8.7 0.00 3.07 0.69 82 1010.1
20260506133319 57 5 4.3 9.6 0.00 3.07 0.69 80 1010.1
20260506132901 57 9 7.0 9.6 0.00 3.07 0.69 81 1010.1
20260506132336 57 17 4.3 11.3 0.00 3.07 0.69 82 1010.0
20260506131832 57 5 7.0 12.2 0.00 3.07 0.69 83 1010.2
20260506131330 56 22 8.7 13.0 0.00 3.07 0.69 84 1010.1
20260506130827 56 42 9.6 13.0 0.00 3.07 0.69 85 1010.2
20260506130324 55 20 8.7 13.0 0.00 3.15 0.69 86 1010.2
20260506125823 55 360 7.8 13.0 0.00 3.15 0.69 87 1010.3
20260506125340 55 24 9.6 13.0 0.00 3.15 0.69 87 1010.2
20260506124819 54 13 9.6 11.3 0.00 3.15 0.69 89 1010.1
20260506124338 55 350 5.2 11.3 0.00 3.15 0.69 89 1010.2